Theta_e
344 342 343 344 341 339 335 332 333 337 341 344 344 341 339 334 330 330 330 330 332 339 340 340 336 332 332 322 331 337 333 335 338 335 331 328 327 326 323 319 317 322 316
346 342 342 343 344 343 340 335 331 331 337 341 342 341 339 334 329 329 329 330 330 332 335 337 338 333 333 323 329 334 332 330 329 328 327 327 327 326 325 322 323 325 321
342 342 342 340 340 343 343 342 333 329 334 340 340 338 339 337 331 328 332 335 337 334 331 332 332 336 334 328 324 333 334 334 332 328 326 330 328 328 329 325 328 330 330
339 338 337 337 339 340 341 343 342 333 328 333 339 340 339 339 337 334 339 340 342 340 338 332 331 331 336 340 329 325 333 333 332 332 328 328 329 329 331 328 327 329 330
334 332 330 330 335 337 339 340 341 342 338 329 334 335 338 340 340 340 341 342 340 340 338 333 326 326 335 338 340 335 325 326 330 331 337 331 332 331 331 332 331 330 329
334 332 332 333 342 339 339 341 343 342 342 340 333 334 335 337 338 338 338 337 336 334 332 328 325 326 330 335 339 339 337 333 332 336 336 331 327 335 331 331 332 333 333
332 332 329 328 331 339 342 343 344 346 345 342 341 338 332 333 335 337 336 334 333 331 330 327 325 327 331 335 336 337 337 337 337 341 341 333 325 325 327 329 331 335 335
329 328 327 326 329 332 330 334 340 340 339 339 339 339 339 340 336 334 334 336 336 334 332 330 328 325 330 335 336 335 335 335 335 342 341 337 327 324 325 327 331 333 334
333 332 331 332 330 329 328 328 329 330 330 332 336 336 335 337 338 341 341 340 338 335 336 335 333 330 327 327 333 334 332 332 337 341 337 338 333 327 326 326 327 329 332
335 333 332 333 332 332 331 331 332 333 333 332 332 332 332 331 330 331 331 331 333 337 338 337 336 334 332 330 329 328 328 330 333 338 339 337 332 330 328 327 327 326 328
333 333 332 331 330 326 325 322 321 320 320 319 319 320 323 326 328 330 332 332 331 330 331 333 337 337 335 334 332 331 332 333 336 336 337 336 331 330 329 328 328 327 329
333 332 328 325 322 321 321 320 317 316 317 317 317 316 316 316 317 325 330 332 332 333 333 332 332 336 337 338 339 335 333 337 337 338 339 338 329 331 331 331 331 331 333
331 326 323 322 323 323 322 318 317 317 317 316 317 317 317 317 316 318 322 326 330 330 330 333 333 332 332 334 336 337 339 338 339 339 338 334 331 332 332 333 332 333 333
323 323 323 322 323 322 321 319 318 318 318 318 318 318 319 318 317 316 316 321 323 324 326 327 329 333 331 329 332 330 335 337 336 337 337 331 326 327 327 327 327 327 327
324 323 322 323 323 322 321 319 319 319 320 320 319 319 320 319 316 315 315 314 314 318 322 324 326 326 329 331 331 335 336 338 338 337 337 334 326 327 328 331 330 326 324
324 323 322 322 322 321 321 320 321 321 321 321 320 319 316 314 313 313 313 313 312 313 314 318 322 325 326 326 330 332 332 334 337 338 337 339 337 336 336 337 338 337 328
323 323 323 322 322 322 322 322 322 321 320 317 314 313 312 311 311 310 310 310 310 310 311 312 314 320 325 327 326 324 324 325 332 332 336 337 337 336 337 336 335 336 337
324 323 322 322 323 323 323 323 322 320 316 314 311 309 308 307 307 308 308 308 308 308 309 310 312 312 317 322 324 325 323 321 320 324 330 332 331 329 329 336 335 335 335
323 323 323 323 323 324 324 323 320 316 313 311 309 308 306 305 304 304 305 306 306 308 310 312 313 314 312 315 321 323 323 322 321 322 323 328 327 327 326 330 334 335 335
325 324 324 324 325 324 323 317 314 312 310 308 306 306 305 304 303 303 304 304 305 307 310 312 313 314 315 314 317 322 322 323 322 323 323 324 328 330 329 329 331 334 335
326 325 325 325 323 318 315 313 311 309 307 306 306 305 304 303 302 302 303 304 307 308 309 310 311 312 312 314 316 319 322 322 321 320 319 323 325 327 327 328 328 332 334
327 326 323 320 316 314 312 310 305 305 307 305 304 303 302 302 301 302 302 304 305 307 309 310 312 312 313 314 315 316 319 321 319 318 320 324 325 326 326 325 328 335 332
325 321 318 316 314 312 310 305 304 305 305 304 303 303 302 302 301 301 301 303 305 306 309 310 311 312 312 314 315 317 318 322 321 322 327 327 329 330 329 330 331 332 332
320 317 315 314 312 310 305 304 305 304 304 304 303 303 302 301 301 300 301 302 304 305 307 308 309 309 311 312 315 317 318 317 321 322 321 325 325 327 327 327 329 330 331
317 316 314 312 311 306 304 305 304 303 304 304 303 303 302 301 301 300 300 301 303 304 305 305 307 308 309 310 311 313 315 318 319 320 322 321 323 323 322 322 324 325 327
316 314 313 311 308 304 305 304 303 303 304 303 303 303 302 301 301 299 300 301 303 303 304 304 305 306 307 309 310 311 312 313 316 318 319 320 321 322 321 321 322 323 324
Wind_Speed
5 4 3 4 5 5 5 4 5 8 8 13 13 12 11 12 16 18 15 13 13 13 14 12 12 12 12 16 20 18 13 11 14 14 12 11 10 8 7 6 7 7 6
5 5 3 2 3 4 5 5 4 6 9 10 14 14 15 12 15 17 14 12 12 13 12 12 12 12 12 16 19 17 14 13 13 12 12 12 11 9 7 8 9 8 8
8 6 3 1 1 2 4 4 5 5 7 8 11 11 12 10 14 16 13 11 11 12 13 13 13 15 14 15 19 18 16 14 12 11 11 12 12 11 9 10 9 8 8
7 5 1 2 3 2 0 1 3 5 6 8 8 7 6 7 9 11 10 10 10 11 12 14 14 17 17 15 18 20 18 15 12 12 12 13 13 12 11 11 9 8 7
3 4 2 2 3 2 2 2 2 2 5 6 7 8 7 7 8 9 11 11 11 12 13 14 15 18 20 17 15 17 19 17 15 14 12 13 14 14 13 11 10 8 6
5 7 6 5 6 5 2 2 2 1 3 5 7 9 10 10 10 10 11 12 12 13 14 15 14 17 21 21 18 16 17 18 18 16 15 17 18 16 15 13 12 11 9
7 6 5 5 3 5 5 5 4 1 2 4 5 6 8 9 10 11 12 13 13 14 15 16 16 17 20 23 22 21 19 19 20 17 18 19 20 19 18 17 15 13 12
7 7 5 4 4 5 4 4 2 1 4 6 9 11 11 9 11 12 14 15 17 17 18 18 18 19 22 24 25 23 22 22 22 20 21 22 24 22 21 20 18 17 15
6 4 5 4 6 7 9 8 8 9 9 9 10 13 13 11 15 15 15 16 19 20 21 21 22 22 22 24 27 28 27 26 22 20 23 25 25 25 24 22 21 20 19
8 5 7 10 16 20 17 18 14 13 14 13 11 12 13 14 14 17 18 18 20 22 24 24 26 27 26 25 25 27 28 29 28 24 23 24 27 26 26 24 24 23 22
14 16 20 19 17 18 18 18 18 18 17 17 16 14 15 16 15 15 18 21 23 24 26 26 28 29 28 28 29 29 27 28 26 26 26 28 30 28 28 28 27 26 25
19 21 19 19 18 19 21 22 24 24 23 22 22 18 18 19 20 19 18 18 19 21 25 28 30 30 30 27 26 31 33 27 27 28 28 31 32 31 31 31 30 30 29
18 20 19 18 19 21 23 22 25 26 24 22 22 19 21 22 23 20 18 19 19 18 17 20 25 31 30 32 32 28 27 28 29 29 31 34 34 33 33 33 33 33 32
18 19 17 17 20 22 23 22 23 24 22 22 23 25 27 27 28 26 23 19 18 19 19 17 19 26 35 38 35 35 35 30 29 30 29 36 36 34 34 35 35 35 36
18 16 16 17 17 19 19 19 23 25 25 25 26 27 28 30 31 29 25 24 22 22 19 18 18 18 21 27 35 27 33 34 32 29 28 32 35 34 34 34 35 37 38
11 11 10 11 15 14 15 18 20 21 23 25 27 29 30 31 30 27 26 26 26 25 24 23 21 20 18 20 25 27 25 25 30 32 32 27 34 35 35 33 32 33 38
8 7 8 12 12 15 17 19 23 26 28 30 31 30 28 26 27 27 23 23 25 26 24 24 24 24 23 22 23 24 25 23 30 34 31 32 29 28 33 34 32 32 33
3 5 7 10 11 16 22 25 27 29 31 32 32 31 32 30 27 24 25 24 23 24 24 22 22 25 26 26 24 25 27 29 29 31 37 43 39 39 40 34 34 33 34
2 5 8 10 14 18 22 24 26 28 28 28 28 30 33 31 30 28 23 21 22 20 21 20 18 19 22 26 27 26 27 28 29 27 33 35 49 60 53 49 42 36 34
4 6 9 11 14 18 21 23 25 23 25 27 26 28 29 30 31 27 21 18 17 16 17 17 17 15 17 20 22 23 26 25 25 25 26 31 37 46 59 46 46 41 40
4 7 10 13 17 21 25 26 25 24 22 23 24 27 29 28 24 22 20 17 15 15 17 17 18 19 18 15 18 18 19 23 23 22 23 26 28 38 41 42 47 47 43
5 7 11 16 21 25 25 28 26 21 18 21 23 24 25 23 22 20 19 18 17 13 14 16 16 20 18 13 13 15 14 13 18 19 22 24 27 27 28 38 37 32 40
4 8 14 19 23 24 27 28 24 21 20 22 23 24 24 22 22 22 17 18 16 16 14 14 14 16 19 17 9 11 7 7 7 7 7 9 13 15 19 24 30 30 28
4 10 16 20 22 25 27 24 25 23 22 21 22 24 23 21 21 22 19 16 17 16 16 15 15 17 17 17 13 7 12 18 11 8 5 3 2 3 4 7 11 14 14
6 13 17 19 22 25 23 22 22 20 18 20 23 26 24 25 19 21 19 17 16 18 18 20 20 16 16 14 14 15 10 8 12 10 10 9 6 4 3 4 6 11 14
9 13 17 19 22 21 20 20 19 20 20 23 26 28 26 26 24 23 20 19 18 18 20 20 19 19 16 13 11 10 8 5 6 5 7 8 6 5 4 6 6 5 9
Wind_Direction
90 74 97 73 79 77 128 146 128 120 145 168 173 178 176 179 181 180 179 176 172 172 181 185 181 177 171 170 167 165 157 153 158 157 160 162 153 148 137 130 130 136 136
80 103 92 101 84 69 70 113 134 136 149 170 178 185 191 179 186 185 187 188 188 186 193 202 201 193 187 180 176 174 166 158 157 160 160 159 158 153 146 143 130 128 114
66 70 72 352 24 58 53 72 107 131 146 166 187 181 186 175 186 188 192 201 209 208 210 215 214 208 199 193 189 181 176 169 168 168 169 170 171 167 160 156 145 133 122
45 59 89 114 102 113 87 64 97 123 138 152 166 180 194 205 197 199 212 223 232 233 231 229 228 216 205 200 199 199 195 190 187 187 188 188 189 184 176 169 166 157 150
47 56 75 77 72 119 172 175 202 175 142 146 153 170 186 204 208 221 229 232 239 239 238 240 239 227 216 211 207 209 212 211 205 201 202 203 199 204 195 189 184 182 183
57 46 40 57 55 53 51 115 138 185 181 180 169 174 178 193 209 222 233 239 239 239 244 246 244 237 226 222 223 220 219 220 219 214 216 215 212 213 212 213 205 204 206
67 58 50 46 61 66 65 58 52 71 192 202 229 221 218 208 213 223 234 243 249 249 246 248 244 237 229 228 229 231 232 230 230 224 224 221 219 219 220 222 223 226 228
71 64 57 57 54 56 67 69 85 239 252 250 241 244 242 239 253 244 240 242 245 250 253 249 247 242 235 231 231 232 232 234 235 228 228 225 222 222 223 223 228 234 243
68 71 29 54 62 44 39 33 23 14 355 338 315 297 313 258 255 258 251 255 252 248 250 252 251 246 240 238 238 236 234 236 232 233 232 229 226 226 229 230 232 237 241
49 74 76 73 58 49 45 41 33 21 14 6 352 332 322 311 292 280 281 267 260 258 255 250 255 251 245 242 239 239 238 238 237 233 235 231 230 229 232 234 238 240 241
85 75 66 67 63 62 57 48 38 25 14 6 359 349 341 342 334 317 296 285 274 265 257 252 251 253 250 248 245 242 239 235 234 233 235 237 233 233 236 239 242 244 244
87 77 72 65 56 47 40 31 31 26 20 13 7 3 359 356 342 329 315 308 298 285 276 267 259 252 248 246 247 248 241 238 235 234 235 236 235 236 238 240 241 242 243
90 80 65 55 46 34 24 24 20 17 15 10 9 1 354 349 347 332 318 311 307 303 297 283 275 259 250 251 245 240 243 237 236 237 236 240 238 238 239 242 242 243 243
92 72 60 50 33 21 16 14 9 1 358 354 350 345 342 340 337 334 320 310 304 305 303 297 289 268 250 240 254 248 246 240 239 237 240 241 241 241 241 243 243 243 243
75 64 55 36 14 7 5 0 356 351 344 340 335 333 331 330 328 325 316 307 302 293 290 286 286 286 277 252 247 254 248 244 237 236 241 246 245 244 243 246 247 244 242
66 61 49 19 9 1 354 351 344 341 338 335 332 332 330 330 329 325 319 312 306 296 283 276 271 269 266 270 246 246 254 250 245 243 243 245 247 247 245 245 248 250 245
62 39 11 355 347 347 348 347 343 342 341 339 339 338 339 337 332 332 328 319 313 306 299 285 274 266 263 259 254 255 259 256 253 250 248 247 247 255 254 246 249 250 249
40 0 353 341 343 354 351 343 339 337 337 339 343 344 345 344 341 334 327 327 319 314 310 300 286 273 262 259 262 260 262 261 260 259 258 248 248 265 264 258 251 247 247
346 335 336 339 350 344 333 330 328 328 333 339 339 339 340 343 345 342 335 325 321 320 316 315 306 294 277 264 260 262 264 264 265 264 258 257 253 251 252 259 257 256 253
304 317 327 336 334 331 327 328 333 342 343 342 346 347 345 342 342 346 346 338 329 323 325 328 323 319 305 286 273 263 259 260 262 264 266 262 250 246 243 254 259 256 253
298 317 332 334 338 334 335 343 346 347 346 348 350 348 346 346 348 351 351 351 349 342 335 329 325 328 327 321 286 274 270 259 260 264 268 262 253 245 243 254 258 259 248
297 335 340 343 342 343 349 349 352 356 358 358 355 359 360 359 359 0 359 360 354 350 341 333 335 338 329 326 302 284 289 276 262 256 255 251 250 248 243 241 252 245 243
312 344 346 346 346 348 350 352 356 359 2 2 7 4 3 2 3 5 8 5 353 352 347 349 343 348 343 330 290 266 283 257 299 252 249 244 241 238 239 237 238 240 238
347 350 348 349 350 350 353 357 360 6 10 9 4 1 2 360 358 1 7 10 2 358 355 354 353 350 343 344 338 259 250 256 273 280 265 189 213 217 225 237 245 249 241
0 352 352 352 352 353 356 360 4 12 11 6 8 9 7 6 5 1 10 12 4 3 5 4 3 353 344 349 350 328 273 275 260 264 276 261 264 276 296 287 262 248 248
356 351 351 356 353 353 2 5 11 18 15 14 13 13 14 11 11 10 23 16 9 7 6 5 2 7 355 355 355 355 329 320 297 286 291 295 285 272 327 338 330 293 250